Location: Rio Negrinho
(26.2394°S, 49.4999°W)
Time: 12:13:44
(UTC+00:00)

NOAA 6 - Pass Details

Date: 08 October 2020
Orbit: 773 x 786 km, 98.7° (Epoch: 26 October)

Event Time Altitude Azimuth Distance (km) Brightness Sun altitude
Rises 22:09:39 0° 190° (S) 3,276 7.6 -11.4°
Reaches altitude 10° 22:12:41 10° 208° (SSW) 2,343 7.1 -12.1°
Maximum altitude 22:16:02 18° 249° (WSW) 1,858 7.2 -12.8°
Drops below altitude 10° 22:19:22 10° 290° (WNW) 2,331 7.4 -13.6°
Sets 22:22:23 0° 309° (NW) 3,252 7.8 -14.2°
